Date String (YYYY-MM-DD hh:mm:ss) UTC,Instrument flags,Ambient pressure (hPa),Sample flow (lpm),Bypass flow (lpm),Sample temperature (°C),Ambient temperature (°C),ASC tube jacket temperature (°C),LED temperature (°C),Box temperature (°C),Sample RH (%),Span deviation,Mass concentration (μg/m³),Mass concentration (μg/m³),Mass concentration (μg/m³)
DateTimeUTC,F1_M11,P_M11,Q1_M11,Q2_M11,T1_M11,T2_M11,T3_M11,T4_M11,T5_M11,U1_M11,ZSPAN_M11,X0_M11,X2_M11,X1_M11
2021-11-07 09:00:00,,0823.1,5.02,0.00,29.4,28.6,00.0,38.5,31.1,05.3,0000.0,0003.16,0001.10,0000.89
2021-11-07 09:01:00,,0823.2,4.99,0.00,29.4,28.6,00.0,38.5,31.1,05.3,0000.0,0003.10,0001.08,0000.88
2021-11-07 09:02:00,,0823.2,5.01,0.00,29.4,28.6,00.0,38.5,31.1,05.3,0000.0,0002.96,0001.02,0000.86
2021-11-07 09:03:00,,0823.2,5.00,0.00,29.4,28.5,00.0,38.5,31.2,05.3,0000.0,0002.88,0000.99,0000.86
2021-11-07 09:04:00,,0823.1,5.01,0.00,29.4,28.5,00.0,38.5,31.1,05.3,0000.0,0002.93,0001.02,0000.86
2021-11-07 09:05:00,,0823.1,5.00,0.00,29.4,28.5,00.0,38.5,31.1,05.3,0000.0,0002.92,0001.01,0000.86
2021-11-07 09:06:00,,0823.1,5.00,0.00,29.4,28.5,00.0,38.5,31.1,05.4,0000.0,0002.56,0000.99,0000.85
2021-11-07 09:07:00,,0823.1,5.00,0.00,29.4,28.5,00.0,38.5,31.2,05.4,0000.0,0002.28,0000.96,0000.84
2021-11-07 09:08:00,,0823.2,5.00,0.00,29.4,28.5,00.0,38.5,31.1,05.4,0000.0,0002.25,0000.96,0000.83
2021-11-07 09:09:00,,0823.2,5.01,0.00,29.4,28.6,00.0,38.5,31.1,05.4,0000.0,0002.07,0000.97,0000.84
2021-11-07 09:10:00,,0823.2,5.00,0.00,29.4,28.6,00.0,38.5,31.1,05.4,0000.0,0001.62,0000.99,0000.84
2021-11-07 09:11:00,,0823.2,4.99,0.00,29.4,28.6,00.0,38.5,31.1,05.4,0000.0,0001.75,0001.00,0000.83
2021-11-07 09:12:00,,0823.3,5.01,0.00,29.4,28.7,00.0,38.5,31.1,05.4,0000.0,0001.83,0001.01,0000.83
2021-11-07 09:13:00,,0823.2,4.99,0.00,29.5,28.7,00.0,38.5,31.2,05.4,0000.0,0001.94,0001.06,0000.85
2021-11-07 09:14:00,,0823.2,5.01,0.00,29.5,28.7,00.0,38.5,31.2,05.4,0000.0,0001.99,0001.08,0000.85
2021-11-07 09:15:00,,0823.2,4.99,0.00,29.5,28.7,00.0,38.5,31.2,05.4,0000.0,0001.95,0001.05,0000.85
2021-11-07 09:16:00,,0823.2,5.01,0.00,29.5,28.7,00.0,38.5,31.2,05.4,0000.0,0001.92,0001.04,0000.84
2021-11-07 09:17:00,,0823.2,5.00,0.00,29.5,28.7,00.0,38.5,31.3,05.4,0000.0,0001.91,0001.04,0000.85
2021-11-07 09:18:00,,0823.2,5.01,0.00,29.5,28.7,00.0,38.5,31.3,05.4,0000.0,0001.95,0001.06,0000.84
2021-11-07 09:19:00,,0823.2,5.00,0.00,29.5,28.7,00.0,38.5,31.3,05.4,0000.0,0002.01,0001.07,0000.85
2021-11-07 09:20:00,,0823.2,5.00,0.00,29.5,28.6,00.0,38.5,31.2,05.5,0000.0,0002.09,0001.08,0000.85
2021-11-07 09:21:00,,0823.2,5.00,0.00,29.4,28.6,00.0,38.5,31.2,05.5,0000.0,0001.98,0001.09,0000.85
2021-11-07 09:22:00,,0823.1,5.00,0.00,29.4,28.6,00.0,38.5,31.2,05.6,0000.0,0001.80,0001.08,0000.85
2021-11-07 09:23:00,,0823.1,5.01,0.00,29.4,28.6,00.0,38.5,31.1,05.6,0000.0,0001.77,0001.10,0000.86
2021-11-07 09:24:00,,0823.2,5.00,0.00,29.4,28.5,00.0,38.5,31.0,05.6,0000.0,0002.51,0001.07,0000.86
2021-11-07 09:25:00,,0823.2,4.99,0.00,29.4,28.5,00.0,38.5,31.1,05.6,0000.0,0002.73,0001.09,0000.87
2021-11-07 09:26:00,,0823.3,5.00,0.00,29.3,28.5,00.0,38.5,31.0,05.6,0000.0,0003.16,0001.13,0000.88
2021-11-07 09:27:00,,0823.3,5.02,0.00,29.3,28.5,00.0,38.4,31.0,05.7,0000.0,0003.49,0001.16,0000.89
2021-11-07 09:28:00,,0823.3,5.00,0.00,29.3,28.4,00.0,38.4,31.0,05.7,0000.0,0003.53,0001.17,0000.90
2021-11-07 09:29:00,,0823.4,5.01,0.00,29.3,28.4,00.0,38.4,31.0,05.8,0000.0,0003.52,0001.18,0000.91
2021-11-07 09:30:00,,0823.3,5.00,0.00,29.3,28.4,00.0,38.4,31.0,05.8,0000.0,0003.45,0001.16,0000.92
2021-11-07 09:31:00,,0823.3,5.00,0.00,29.3,28.4,00.0,38.4,31.0,05.9,0000.0,0003.35,0001.15,0000.92
2021-11-07 09:32:00,,0823.2,4.99,0.00,29.3,28.4,00.0,38.4,31.0,05.9,0000.0,0003.25,0001.16,0000.92
2021-11-07 09:33:00,,0823.2,4.99,0.00,29.3,28.4,00.0,38.4,31.0,05.8,0000.0,0003.28,0001.17,0000.94
2021-11-07 09:34:00,,0823.3,5.00,0.00,29.3,28.4,00.0,38.4,31.0,05.8,0000.0,0003.30,0001.17,0000.94
2021-11-07 09:35:00,,0823.3,5.00,0.00,29.2,28.4,00.0,38.4,30.9,05.8,0000.0,0002.57,0001.19,0000.94
2021-11-07 09:36:00,,0823.3,5.00,0.00,29.2,28.4,00.0,38.4,30.9,05.8,0000.0,0002.41,0001.20,0000.94
2021-11-07 09:37:00,,0823.3,4.99,0.00,29.2,28.4,00.0,38.3,30.9,05.8,0000.0,0002.15,0001.21,0000.94
2021-11-07 09:38:00,,0823.3,5.00,0.00,29.2,28.3,00.0,38.3,30.9,05.9,0000.0,0001.94,0001.22,0000.95
2021-11-07 09:39:00,,0823.3,4.99,0.00,29.2,28.3,00.0,38.3,30.8,05.9,0000.0,0002.05,0001.22,0000.94
2021-11-07 09:40:00,,0823.4,5.00,0.00,29.1,28.3,00.0,38.3,30.8,05.8,0000.0,0002.17,0001.22,0000.94
2021-11-07 09:41:00,,0823.3,5.02,0.00,29.1,28.3,00.0,38.3,30.8,05.8,0000.0,0002.21,0001.24,0000.94
2021-11-07 09:42:00,,0823.4,5.00,0.00,29.1,28.3,00.0,38.3,30.8,05.8,0000.0,0002.23,0001.25,0000.95
2021-11-07 09:43:00,,0823.4,4.99,0.00,29.1,28.3,00.0,38.3,30.8,05.9,0000.0,0002.26,0001.25,0000.96
2021-11-07 09:44:00,,0823.4,5.01,0.00,29.1,28.3,00.0,38.2,30.8,05.9,0000.0,0002.23,0001.25,0000.95
2021-11-07 09:45:00,,0823.4,4.99,0.00,29.1,28.3,00.0,38.2,30.8,05.9,0000.0,0002.19,0001.24,0000.96
2021-11-07 09:46:00,,0823.4,5.00,0.00,29.1,28.3,00.0,38.2,30.8,05.9,0000.0,0002.18,0001.24,0000.96
2021-11-07 09:47:00,,0823.4,5.00,0.00,29.1,28.3,00.0,38.2,30.8,06.0,0000.0,0002.22,0001.24,0000.96
2021-11-07 09:48:00,,0823.4,5.00,0.00,29.1,28.3,00.0,38.2,30.8,06.0,0000.0,0002.25,0001.23,0000.96
2021-11-07 09:49:00,,0823.3,5.00,0.00,29.1,28.3,00.0,38.2,30.8,06.1,0000.0,0002.17,0001.21,0000.97
2021-11-07 09:50:00,,0823.3,5.00,0.00,29.1,28.3,00.0,38.2,30.8,06.1,0000.0,0002.05,0001.22,0000.97
2021-11-07 09:51:00,,0823.3,5.00,0.00,29.1,28.3,00.0,38.2,30.8,06.1,0000.0,0002.15,0001.24,0000.99
2021-11-07 09:52:00,,0823.4,4.99,0.00,29.0,28.3,00.0,38.2,30.8,06.1,0000.0,0003.37,0001.24,0000.99
2021-11-07 09:53:00,,0823.4,5.00,0.00,29.0,28.2,00.0,38.2,30.7,06.1,0000.0,0003.34,0001.23,0000.99
2021-11-07 09:54:00,,0823.4,4.99,0.00,29.0,28.2,00.0,38.2,30.7,06.1,0000.0,0003.31,0001.22,0001.00
2021-11-07 09:55:00,,0823.4,5.00,0.00,29.0,28.2,00.0,38.2,30.7,06.1,0000.0,0003.49,0001.28,0001.01
2021-11-07 09:56:00,,0823.3,5.01,0.00,29.0,28.2,00.0,38.2,30.7,06.1,0000.0,0003.58,0001.29,0001.00
2021-11-07 09:57:00,,0823.3,5.00,0.00,29.0,28.2,00.0,38.1,30.7,06.1,0000.0,0003.59,0001.27,0000.99
2021-11-07 09:58:00,,0823.4,5.01,0.00,29.0,28.2,00.0,38.1,30.8,06.1,0000.0,0003.58,0001.28,0000.99
2021-11-07 09:59:00,,0823.3,4.99,0.00,29.0,28.2,00.0,38.1,30.8,06.1,0000.0,0003.54,0001.26,0000.99
